• In Russia
  • List of Countries
  • For 7 days
  • Water Temperature
  • Weather Map
  • Weather Widgets
  • user-avatar
    Login

    Hourly Weather Korçe

    Today, 28 January, Tuesday

    Time Temperature Precipitation Wind Pressure Humidity
    00:00 +3°C° 0 mm 2 mps 665 mmHg 95%
    01:00 +2°C° 0 mm 2 mps 665 mmHg 95%
    02:00 +3°C° 0 mm 1 mps 665 mmHg 95%
    03:00 +3°C° 0 mm 1 mps 665 mmHg 95%
    04:00 +2°C° 0 mm 1 mps 665 mmHg 94%
    05:00 +2°C° 0 mm 1 mps 665 mmHg 94%
    06:00 +2°C° 0 mm 1 mps 665 mmHg 94%
    07:00 +2°C° 0 mm 1 mps 665 mmHg 94%
    08:00 +3°C° 0 mm 1 mps 666 mmHg 89%
    09:00 +4°C° 0 mm 1 mps 666 mmHg 84%
    10:00 +5°C° 0 mm 1 mps 666 mmHg 78%
    11:00 +5°C° 0 mm 2 mps 666 mmHg 75%
    12:00 +6°C° 0 mm 2 mps 666 mmHg 71%
    13:00 +7°C° 0 mm 2 mps 666 mmHg 67%
    14:00 +7°C° 0 mm 2 mps 665 mmHg 70%
    15:00 +6°C° 0 mm 2 mps 665 mmHg 73%
    16:00 +6°C° 0 mm 2 mps 664 mmHg 76%
    17:00 +5°C° 0 mm 2 mps 664 mmHg 82%
    18:00 +4°C° 0 mm 2 mps 664 mmHg 88%
    19:00 +3°C° 0 mm 2 mps 664 mmHg 94%
    20:00 +2°C° 0 mm 2 mps 664 mmHg 94%
    21:00 +2°C° 0 mm 2 mps 664 mmHg 94%
    22:00 +2°C° 0 mm 2 mps 663 mmHg 95%
    23:00 +2°C° 0 mm 2 mps 663 mmHg 95%

    Tomorrow, 29 January, Wednesday

    Time Temperature Precipitation Wind Pressure Humidity
    00:00 +3°C° 0 mm 2 mps 663 mmHg 95%
    01:00 +3°C° 0 mm 2 mps 663 mmHg 95%
    02:00 +3°C° 0 mm 2 mps 662 mmHg 95%
    03:00 +3°C° 0 mm 2 mps 662 mmHg 95%
    04:00 +2°C° 0 mm 3 mps 662 mmHg 95%
    05:00 +2°C° 0 mm 3 mps 662 mmHg 95%
    06:00 +2°C° 0 mm 3 mps 662 mmHg 95%
    07:00 +3°C° 0 mm 3 mps 662 mmHg 94%
    08:00 +3°C° 0.1 mm 3 mps 662 mmHg 91%
    09:00 +4°C° 0.1 mm 3 mps 662 mmHg 88%
    10:00 +5°C° 0.1 mm 3 mps 663 mmHg 85%
    11:00 +7°C° 0.1 mm 3 mps 663 mmHg 81%
    12:00 +7°C° 0.1 mm 3 mps 663 mmHg 77%
    13:00 +8°C° 0.1 mm 3 mps 663 mmHg 73%
    14:00 +7°C° 0.2 mm 3 mps 663 mmHg 76%
    15:00 +7°C° 0.2 mm 2 mps 662 mmHg 79%
    16:00 +6°C° 0.2 mm 2 mps 662 mmHg 81%
    17:00 +5°C° 0.2 mm 2 mps 662 mmHg 84%
    18:00 +4°C° 0.2 mm 2 mps 663 mmHg 88%
    19:00 +5°C° 0.2 mm 1 mps 663 mmHg 91%
    20:00 +5°C° 0.1 mm 1 mps 663 mmHg 91%
    21:00 +4°C° 0.1 mm 1 mps 663 mmHg 91%
    22:00 +4°C° 0.1 mm 1 mps 664 mmHg 91%
    23:00 +4°C° 0.6 mm 1 mps 663 mmHg 93%

    Day after tomorrow, 30 January, Thursday

    Time Temperature Precipitation Wind Pressure Humidity
    00:00 +4°C° 0.6 mm 1 mps 663 mmHg 94%
    01:00 +4°C° 0.6 mm 1 mps 663 mmHg 95%
    02:00 +4°C° 0.3 mm 1 mps 663 mmHg 95%
    03:00 +4°C° 0.3 mm 1 mps 663 mmHg 95%
    04:00 +4°C° 0.3 mm 1 mps 663 mmHg 95%
    05:00 +4°C° 0.2 mm 1 mps 663 mmHg 95%
    06:00 +3°C° 0.2 mm 1 mps 664 mmHg 95%
    07:00 +3°C° 0.2 mm 1 mps 664 mmHg 95%
    08:00 +3°C° 0.1 mm 2 mps 665 mmHg 88%
    09:00 +4°C° 0.1 mm 2 mps 666 mmHg 82%
    10:00 +4°C° 0.1 mm 3 mps 666 mmHg 75%
    11:00 +4°C° 0 mm 3 mps 666 mmHg 70%
    12:00 +5°C° 0 mm 4 mps 666 mmHg 64%
    13:00 +5°C° 0 mm 4 mps 667 mmHg 59%
    14:00 +5°C° 0 mm 4 mps 667 mmHg 59%
    15:00 +4°C° 0 mm 3 mps 667 mmHg 60%
    16:00 +5°C° 0 mm 2 mps 666 mmHg 60%
    17:00 +4°C° 0 mm 2 mps 667 mmHg 66%
    18:00 +3°C° 0 mm 1 mps 667 mmHg 73%
    19:00 +2°C° 0 mm 1 mps 667 mmHg 79%
    20:00 +2°C° 0 mm 1 mps 667 mmHg 80%
    21:00 +2°C° 0 mm 1 mps 667 mmHg 81%
    22:00 0°C° 0 mm 0 mps 667 mmHg 82%
    23:00 0°C° 0 mm 0 mps 667 mmHg 80%

    31 January, Friday

    Time Temperature Precipitation Wind Pressure Humidity
    00:00 0°C° 0 mm 0 mps 667 mmHg 78%
    01:00 0°C° 0 mm 0 mps 667 mmHg 75%
    02:00 0°C° 0 mm 0 mps 667 mmHg 69%
    03:00 0°C° 0 mm 0 mps 667 mmHg 63%
    04:00 0°C° 0 mm 0 mps 667 mmHg 57%
    05:00 +1°C° 0 mm 1 mps 667 mmHg 54%
    06:00 +1°C° 0 mm 1 mps 667 mmHg 50%
    07:00 +1°C° 0 mm 1 mps 667 mmHg 47%
    08:00 +3°C° 0 mm 1 mps 668 mmHg 43%
    09:00 +4°C° 0 mm 1 mps 668 mmHg 38%
    10:00 +6°C° 0 mm 1 mps 669 mmHg 34%
    11:00 +6°C° 0 mm 2 mps 669 mmHg 33%
    12:00 +7°C° 0 mm 2 mps 669 mmHg 33%
    13:00 +7°C° 0 mm 2 mps 668 mmHg 32%
    14:00 +7°C° 0 mm 2 mps 668 mmHg 38%
    15:00 +6°C° 0 mm 2 mps 668 mmHg 45%
    16:00 +6°C° 0 mm 1 mps 668 mmHg 51%
    17:00 +5°C° 0 mm 1 mps 667 mmHg 56%
    18:00 +4°C° 0 mm 1 mps 667 mmHg 60%
    19:00 +2°C° 0 mm 1 mps 667 mmHg 65%
    20:00 +2°C° 0 mm 1 mps 667 mmHg 67%
    21:00 +2°C° 0 mm 1 mps 667 mmHg 70%
    22:00 +2°C° 0 mm 1 mps 667 mmHg 72%
    23:00 +2°C° 0 mm 1 mps 667 mmHg 75%

    1 February, Saturday

    Time Temperature Precipitation Wind Pressure Humidity
    00:00 +2°C° 0 mm 1 mps 667 mmHg 77%
    01:00 +2°C° 0 mm 1 mps 667 mmHg 79%
    02:00 +2°C° 0 mm 1 mps 667 mmHg 81%
    03:00 +2°C° 0 mm 1 mps 667 mmHg 83%
    04:00 +1°C° 0 mm 1 mps 666 mmHg 85%
    05:00 +1°C° 0 mm 1 mps 666 mmHg 86%
    06:00 +1°C° 0 mm 1 mps 666 mmHg 87%
    07:00 +1°C° 0 mm 1 mps 666 mmHg 88%
    08:00 +3°C° 0 mm 1 mps 667 mmHg 82%
    09:00 +5°C° 0 mm 1 mps 668 mmHg 77%
    10:00 +7°C° 0 mm 1 mps 668 mmHg 72%
    11:00 +8°C° 0 mm 1 mps 668 mmHg 70%
    12:00 +9°C° 0 mm 1 mps 668 mmHg 68%
    13:00 +9°C° 0 mm 2 mps 668 mmHg 66%
    14:00 +8°C° 0 mm 2 mps 668 mmHg 69%
    15:00 +9°C° 0 mm 1 mps 667 mmHg 73%
    16:00 +8°C° 0 mm 1 mps 667 mmHg 76%
    17:00 +7°C° 0 mm 1 mps 667 mmHg 81%
    18:00 +6°C° 0 mm 1 mps 667 mmHg 86%
    19:00 +5°C° 0 mm 1 mps 667 mmHg 91%
    20:00 +5°C° 0 mm 1 mps 667 mmHg 91%
    21:00 +4°C° 0 mm 1 mps 667 mmHg 92%
    22:00 +4°C° 0 mm 1 mps 667 mmHg 93%
    23:00 +4°C° 0 mm 1 mps 667 mmHg 93%

    2 February, Sunday

    Time Temperature Precipitation Wind Pressure Humidity
    00:00 +3°C° 0 mm 1 mps 667 mmHg 92%
    01:00 +3°C° 0 mm 1 mps 667 mmHg 92%
    02:00 +3°C° 0 mm 1 mps 667 mmHg 92%
    03:00 +3°C° 0 mm 1 mps 667 mmHg 91%
    04:00 +3°C° 0 mm 1 mps 667 mmHg 91%
    05:00 +3°C° 0 mm 1 mps 667 mmHg 90%
    06:00 +3°C° 0 mm 1 mps 667 mmHg 90%
    07:00 +3°C° 0 mm 1 mps 667 mmHg 90%
    08:00 +5°C° 0 mm 1 mps 668 mmHg 83%
    09:00 +7°C° 0 mm 1 mps 669 mmHg 75%
    10:00 +8°C° 0 mm 1 mps 669 mmHg 68%
    11:00 +10°C° 0 mm 1 mps 670 mmHg 63%
    12:00 +11°C° 0 mm 1 mps 670 mmHg 58%
    13:00 +12°C° 0 mm 1 mps 670 mmHg 53%
    14:00 +11°C° 0 mm 1 mps 670 mmHg 58%
    15:00 +11°C° 0 mm 1 mps 670 mmHg 62%
    16:00 +10°C° 0 mm 1 mps 670 mmHg 67%
    17:00 +9°C° 0 mm 1 mps 669 mmHg 71%
    18:00 +8°C° 0 mm 1 mps 669 mmHg 75%
    19:00 +6°C° 0 mm 1 mps 669 mmHg 79%
    20:00 +6°C° 0 mm 1 mps 669 mmHg 77%
    21:00 +6°C° 0 mm 1 mps 669 mmHg 75%
    22:00 +6°C° 0 mm 1 mps 669 mmHg 73%
    23:00 +6°C° 0 mm 1 mps 669 mmHg 74%
    Show more